Regional Weather Roundup
Issued by NWS Portland, ME

Home | Current Version | Previous Version | Text Only | Print | Product List | Glossary On
Versions: 1 2 3 4 5 6 7 8 9 10 11 12 13 14 15 16 17 18 19 20 21 22 23 24 25 26 27 28 29 30 31 32 33 34 35 36 37 38 39 40 41 42 43 44 45 46 47 48 49 50
000
ASUS41 KGYX 211210
RWRGYX
WEATHER ROUNDUP FOR MAINE AND NEW HAMPSHIRE
NATIONAL WEATHER SERVICE GRAY ME
700 AM EST THU NOV 21 2019

MEZ002-005-006-010-012-015-018-020-021-024-026-027-029-211300-
MAINE

CITY           SKY/WX    TMP DP  RH WIND       PRES   REMARKS
PORTLAND       FAIR      33  28  81 NW3       30.10R
6HR MIN TEMP:  28; 6HR MAX TEMP:  37;

SANFORD        FAIR      31  30  96 CALM      30.10R
BAR HARBOR     FAIR      30  28  92 N6        30.07R
WISCASSET      FAIR      29  26  89 CALM      30.11R
6HR MIN TEMP:  29; 6HR MAX TEMP:  36;

ROCKLAND       FAIR      33  24  69 N7        30.08R
FRYEBURG       FAIR      24  22  91 CALM      30.09S
6HR MIN TEMP:  23; 6HR MAX TEMP:  31;

LEWISTONAUBURN FAIR      30  29  96 N3        30.09R
AUGUSTA        FAIR      31  28  89 NW9       30.09R
6HR MIN TEMP:  30; 6HR MAX TEMP:  35;

WATERVILLE     FAIR      32  29  88 N7        30.06R
BANGOR         FAIR      29  25  85 NW9       30.08R
6HR MIN TEMP:  28; 6HR MAX TEMP:  35;

GREENVILLE       N/A     27  22  81 NW10G17   30.02R WCI  17
6HR MIN TEMP:  25; 6HR MAX TEMP:  27;

MILLINOCKET    FAIR      27  24  89 CALM      30.09R
6HR MIN TEMP:  26; 6HR MAX TEMP:  33;

HOULTON        CLOUDY    29  25  85 N9        30.05R
6HR MIN TEMP:  27; 6HR MAX TEMP:  30;

PRESQUE ISLE   CLOUDY    27  24  89 N7        30.09R
6HR MIN TEMP:  26; 6HR MAX TEMP:  29;

FRENCHVILLE    CLOUDY    24  22  91 N12G17    30.05R WCI  13
6HR MIN TEMP:  24; 6HR MAX TEMP:  25;

CARIBOU        CLOUDY    27  24  89 N6        30.07R
6HR MIN TEMP:  27; 6HR MAX TEMP:  29;

$$

NHZ002-005-008-009-011-012-014-211300-
NEW HAMPSHIRE

CITY           SKY/WX    TMP DP  RH WIND       PRES   REMARKS
PORTSMOUTH     PTCLDY    31  29  92 W3        30.10R
ROCHESTER      FAIR      31  28  89 NW8       30.09R
6HR MIN TEMP:  28; 6HR MAX TEMP:  35;

NASHUA         FAIR      28  28 100 NW7       30.13R
MANCHESTER     FAIR      34  28  79 CALM      30.11R
6HR MIN TEMP:  33; 6HR MAX TEMP:  35;

CONCORD        FAIR      26  24  92 CALM      30.12R
6HR MIN TEMP:  24; 6HR MAX TEMP:  32;

LACONIA        FAIR      28  27  96 SW5       30.11R
PLYMOUTH       FAIR      34  29  82 W9        30.11R
BERLIN         CLOUDY    33  28  81 CALM      30.09R
6HR MIN TEMP:  33; 6HR MAX TEMP:  34; 6HR PCP: TRACE;

WHITEFIELD     CLOUDY    32  30  92 CALM      30.12R
6HR MIN TEMP:  32; 6HR MAX TEMP:  32; 6HR PCP: TRACE;

JAFFREY        FAIR      31  27  85 CALM      30.11R
6HR MIN TEMP:  31; 6HR MAX TEMP:  33;

KEENE          FAIR      25  25 100 CALM      30.15R
LEBANON        FAIR      27  22  81 CALM      30.14S
6HR MIN TEMP:  26; 6HR MAX TEMP:  34;

MT WASHINGTON  MOCLDY    25  23  93 NW35        N/A  WCI   7
                   6HR MAX TEMP:  24;

$$

VTZ005-007-008-211300-
VERMONT

CITY           SKY/WX    TMP DP  RH WIND       PRES   REMARKS
ST JOHNSBURY     N/A     32  30  92 MISG      30.13R
MONTPELIER     FAIR      27  23  85 NW5       30.16S
BURLINGTON     FAIR      28  25  88 CALM      30.19R
$$

MAZ007-012-024-CTZ003-RIZ002-NYZ038-NYZ072-211300-
SOUTHERN NEW ENGLAND AND NY

CITY           SKY/WX    TMP DP  RH WIND       PRES   REMARKS
BOSTON         FAIR      37  29  72 NW12      30.12
WORCESTER      FAIR      32  27  81 NW10      30.09R
NANTUCKET      CLOUDY    43  38  82 N18G26    30.06R
PROVIDENCE     FAIR      36  30  79 N9        30.13R
HARTFORD       FAIR      34  26  72 NW5       30.16R
ALBANY         FAIR      28  25  88 NE5       30.22R
NEW YORK CITY  FAIR      40  30  67 CALM      30.20R
$$

ANZ081-ANZ082-ANZ150-NHZ014-MEZ023>029-211300-
COASTAL MARINE OBSERVATIONS

STATION/POSITION TIME  TEMP    WIND        PRES    WAVE
                       AIR SEA DIR/SP/G            HT/PER
                 (UTC) (F)     (DEG/KT/KT) (MB)    (FT/S)
MOUNT DESERT ROC 1200          340/ 27/ 31 1016.2R
ISLE OF SHOALS   1100   36     320/ 14/ 16 1018.3R
JEFFREYS LEDGE   1138      50                N/A     7/ 8
CASHES LEDGE BUO 1150   41 50  350/ 25/ 29 1016.9R   8/ 7
GEORGES BANK BUO 1150      56              1011.3R   9/ 9
$$

.............KEY..............
   WCI - WIND CHILL
   TC  - TEMPERATURE IN CELSIUS
   VSB - VISIBILITY IN MILES
   HX  - HEAT INDEX
   FAIR- INDICATES FEW OR NO CLOUDS BELOW 12,000 FT, WITH NO
         SIGNIFICANT WEATHER AND/OR OBSTRUCTIONS TO VISIBILITY.





USA.gov is the U.S. government's official web portal to all federal, state and local government web resources and services.